TimeCDT,TemperatureF,Dew PointF,Humidity,Sea Level PressureIn,VisibilityMPH,Wind Direction,Wind SpeedMPH,Gust SpeedMPH,PrecipitationIn,Events,Conditions,WindDirDegrees,DateUTC
8:35 AM,41.0,28.4,61,29.98,10.0,WSW,11.5,19.6,N/A,,Clear,240,2012-10-05 13:35:00
9:55 AM,44.6,26.6,49,29.96,10.0,West,11.5,26.5,N/A,,Partly Cloudy,280,2012-10-05 14:55:00
10:15 AM,44.6,26.6,49,29.96,10.0,West,13.8,23.0,N/A,,Partly Cloudy,270,2012-10-05 15:15:00
10:35 AM,46.4,28.4,50,29.96,10.0,West,9.2,19.6,N/A,,Clear,260,2012-10-05 15:35:00
10:55 AM,46.4,26.6,46,29.96,10.0,West,15.0,26.5,N/A,,Partly Cloudy,260,2012-10-05 15:55:00
11:35 AM,48.2,28.4,46,29.95,10.0,West,8.1,21.9,N/A,,Clear,260,2012-10-05 16:35:00
11:55 AM,50.0,28.4,43,29.94,10.0,WNW,10.4,16.1,N/A,,Clear,300,2012-10-05 16:55:00
12:15 PM,50.0,28.4,43,29.94,8.0,WSW,12.7,23.0,N/A,,Clear,250,2012-10-05 17:15:00
12:35 PM,48.2,26.6,43,29.94,10.0,West,9.2,19.6,N/A,,Partly Cloudy,270,2012-10-05 17:35:00
12:55 PM,50.0,28.4,43,29.93,10.0,WSW,12.7,19.6,N/A,,Partly Cloudy,250,2012-10-05 17:55:00
1:35 PM,48.2,26.6,43,29.91,10.0,WSW,11.5,20.7,N/A,,Partly Cloudy,250,2012-10-05 18:35:00
1:55 PM,50.0,26.6,40,29.91,10.0,WSW,12.7,19.6,N/A,,Partly Cloudy,240,2012-10-05 18:55:00
2:15 PM,51.8,28.4,41,29.90,10.0,West,10.4,20.7,N/A,,Mostly Cloudy,280,2012-10-05 19:15:00
2:35 PM,51.8,26.6,38,29.91,10.0,West,11.5,20.7,N/A,,Mostly Cloudy,260,2012-10-05 19:35:00
2:55 PM,51.8,26.6,38,29.90,10.0,WSW,10.4,23.0,N/A,,Scattered Clouds,250,2012-10-05 19:55:00
3:15 PM,51.8,28.4,41,29.91,10.0,WSW,13.8,21.9,N/A,,Mostly Cloudy,250,2012-10-05 20:15:00
3:35 PM,48.2,26.6,43,29.90,10.0,West,8.1,20.7,N/A,,Mostly Cloudy,270,2012-10-05 20:35:00
3:55 PM,50.0,26.6,40,29.90,10.0,West,15.0,21.9,N/A,,Mostly Cloudy,260,2012-10-05 20:55:00
4:15 PM,50.0,26.6,40,29.90,10.0,West,13.8,21.9,N/A,,Mostly Cloudy,260,2012-10-05 21:15:00
4:35 PM,50.0,26.6,40,29.92,10.0,West,16.1,25.3,N/A,,Overcast,270,2012-10-05 21:35:00
4:55 PM,48.2,26.6,43,29.93,10.0,West,11.5,20.7,N/A,,Mostly Cloudy,270,2012-10-05 21:55:00
5:15 PM,48.2,26.6,43,29.93,10.0,West,12.7,19.6,N/A,,Overcast,260,2012-10-05 22:15:00
5:35 PM,48.2,26.6,43,29.92,10.0,West,10.4,19.6,N/A,,Overcast,270,2012-10-05 22:35:00
5:55 PM,46.4,26.6,46,29.93,10.0,West,13.8,20.7,N/A,,Overcast,260,2012-10-05 22:55:00
6:15 PM,46.4,24.8,43,29.93,10.0,West,10.4,16.1,N/A,,Overcast,270,2012-10-05 23:15:00
6:35 PM,46.4,24.8,43,29.94,10.0,NW,10.4,-,N/A,,Overcast,320,2012-10-05 23:35:00
6:55 PM,44.6,24.8,46,29.94,10.0,NW,10.4,18.4,N/A,,Overcast,320,2012-10-05 23:55:00
7:15 PM,44.6,24.8,46,29.95,10.0,WNW,10.4,20.7,N/A,,Overcast,300,2012-10-06 00:15:00
7:35 PM,44.6,24.8,46,29.96,10.0,NW,10.4,-,N/A,,Overcast,310,2012-10-06 00:35:00
7:55 PM,44.6,24.8,46,29.97,10.0,NW,8.1,-,N/A,,Overcast,310,2012-10-06 00:55:00
8:15 PM,42.8,24.8,49,29.97,10.0,West,10.4,16.1,N/A,,Overcast,270,2012-10-06 01:15:00
8:55 PM,42.8,23.0,46,29.96,10.0,West,8.1,-,N/A,,Overcast,280,2012-10-06 01:55:00
9:15 PM,42.8,23.0,46,29.96,10.0,West,5.8,-,N/A,,Overcast,280,2012-10-06 02:15:00
9:35 PM,41.0,23.0,49,29.95,10.0,West,6.9,-,N/A,,Overcast,280,2012-10-06 02:35:00
9:55 PM,41.0,23.0,49,29.95,10.0,West,6.9,-,N/A,,Overcast,280,2012-10-06 02:55:00
10:35 PM,39.2,24.8,56,29.94,10.0,West,6.9,-,N/A,,Clear,270,2012-10-06 03:35:00
10:55 PM,39.2,24.8,56,29.94,10.0,West,6.9,-,N/A,,Partly Cloudy,260,2012-10-06 03:55:00
11:15 PM,37.4,24.8,60,29.93,10.0,West,8.1,-,N/A,,Scattered Clouds,260,2012-10-06 04:15:00
11:35 PM,37.4,24.8,60,29.93,10.0,West,6.9,-,N/A,,Partly Cloudy,260,2012-10-06 04:35:00
11:55 PM,39.2,24.8,56,29.93,10.0,West,6.9,16.1,N/A,,Clear,270,2012-10-06 04:55:00